Moline, Illinois, United States (61265)
Lat: 41.51N, Lon: 90.52W
Wx Zone: ILZ015
Local Info
Past Weather Observations for Today

NOTE: This archive is for the closest National Weather Service station to Moline. Information may differ from the station used for current weather conditions.

Click here for Long-term Archive

Time Weather Temperature Dewpoint Humidity Pressure Winds Precip Visibility
14:52
Mostly Cloudy
81°F / 27°C 66°F / 19°C 62% 29.8 in
(1009 mb)
SSW 12.7 mph
(SSW 20 kph)
- 10SM
13:52
Mostly Cloudy
81°F / 27°C 66°F / 19°C 62% 29.8 in
(1009 mb)
SSW 13.8 mph
(SSW 22 kph)
- 10SM
12:52
Partly Cloudy
81°F / 27°C 64°F / 18°C 58% 29.77 in
(1008 mb)
SSW 13.8 mph
(SSW 22 kph)
- 10SM
11:52
Clear
81°F / 27°C 64°F / 18°C 58% 29.77 in
(1008 mb)
SSW 15 mph
(SSW 24 kph)
- 10SM
10:52
Partly Cloudy
79°F / 26°C 64°F / 18°C 61% 29.77 in
(1008 mb)
SSW 16.1 mph
(SSW 26 kph)
- 10SM
09:52
Partly Cloudy
75°F / 24°C 64°F / 18°C 69% 29.77 in
(1008 mb)
SSW 13.8 mph
(SSW 22 kph)
- 10SM
08:52
Clear
73°F / 23°C 66°F / 19°C 78% 29.77 in
(1008 mb)
W 8.1 mph
(W 13 kph)
- 10SM
07:59
Partly Cloudy
70°F / 21°C 64°F / 18°C 83% 29.77 in
(1008 mb)
SW 4.6 mph
(SW 7 kph)
- 10SM
07:52
Mostly Cloudy
70°F / 21°C 64°F / 18°C 83% 29.77 in
(1008 mb)
SW 5.8 mph
(SW 9 kph)
- 10SM
07:02
Mostly Cloudy
66°F / 19°C 64°F / 18°C 94% 29.77 in
(1008 mb)
NW 13.8 mph
(NW 22 kph)
- 10SM
06:52
Mostly Cloudy
66°F / 19°C 64°F / 18°C 94% 29.71 in
(1006 mb)
NNE 4.6 mph
(NNE 7 kph)
- 10SM
06:10
Partly Cloudy
66°F / 19°C 64°F / 18°C 94% 29.74 in
(1007 mb)
Calm - 10SM
05:57
Mostly Cloudy
66°F / 19°C 64°F / 18°C 94% 29.77 in
(1008 mb)
W 5.8 mph
(W 9 kph)
- 10SM
05:52
Partly Cloudy
66°F / 19°C 64°F / 18°C 94% 29.77 in
(1008 mb)
W 10.4 mph
(W 17 kph)
- 10SM
05:37
Partly Cloudy
66°F / 19°C 64°F / 18°C 94% 29.77 in
(1008 mb)
NW 9.2 mph
(NW 15 kph)
- 10SM
04:52
Partly Cloudy
66°F / 19°C 64°F / 18°C 94% 29.71 in
(1006 mb)
SE 15 mph
(SE 24 kph)
- 10SM
03:52
Partly Cloudy
64°F / 18°C 63°F / 17°C 94% 29.77 in
(1008 mb)
SSE 6.9 mph
(SSE 11 kph)
0.00 in
(0.00 mm)
10SM
02:52
Overcast
Light Rain
66°F / 19°C 64°F / 18°C 94% 29.77 in
(1008 mb)
ENE 3.5 mph
(ENE 6 kph)
0.10 in
(2.54 mm)
10SM
02:35
Mostly Cloudy
Thunder Storms
66°F / 19°C 63°F / 17°C 88% 29.83 in
(1010 mb)
Calm 0.07 in
(1.78 mm)
3SM
02:00
Overcast
Thunder Storms
66°F / 19°C 64°F / 18°C 94% 29.83 in
(1010 mb)
NW 10.4 mph
(NW 17 kph)
0.03 in
(0.76 mm)
7SM
01:52
Overcast
Thunder Storms
66°F / 19°C 64°F / 18°C 94% 29.83 in
(1010 mb)
NW 13.8 mph
(NW 22 kph)
0.20 in
(5.08 mm)
2SM
01:43
Overcast
Thunder Storms
68°F / 20°C 64°F / 18°C 88% 29.83 in
(1010 mb)
NW 17.3 mph
(NW 28 kph)
0.01 in
(0.25 mm)
1 3/4SM
01:39
Overcast
Thunder Storms
70°F / 21°C 64°F / 18°C 83% 29.83 in
(1010 mb)
W 19.6 mph
(W 32 kph)
0.00 in
(0.00 mm)
7SM
01:22
Mostly Cloudy
Thunder Storms
73°F / 23°C 64°F / 18°C 74% 29.8 in
(1009 mb)
NNW 19.6 mph
(NNW 32 kph)
- 10SM
00:52
Partly Cloudy
75°F / 24°C 70°F / 21°C 83% 29.77 in
(1008 mb)
S 12.7 mph
(S 20 kph)
- 10SM
Time Weather Temperature Dewpoint Humidity Pressure Winds Precip Visibility


Weather for websites

WeatherForYou.com, LLC is not responsible for any damages or problems caused by this service. Current weather conditions are obtained from the closest station including government and personal stations which may have varying degrees of accuracy. Weather forecasts are derived from the NOAA NDFD. Like all things, this site belongs to Jesus Christ... He just trusts me to maintain it. If you have any questions or comments email webmaster@weatherforyou.com

Copyright © 2014, WeatherForYou.com LLC. All rights reserved.